CW3319 Weather Reports


Display with metric or nautical units.
time (UTC)temp
F
wind
direction
speed
MPH
gust
MPH
rain 1hr
in
rain 24hr
in
rain mn
in
humidity
%
barometer
mb
20240614174903 77 325 0.0 1.0 0.00 0.00 0.00 54 1015.8
20240614173903 76 271 0.0 1.0 0.00 0.00 0.00 55 1015.8
20240614172902 76 294 1.0 2.0 0.00 0.00 0.00 54 1015.9
20240614171903 76 296 0.0 1.0 0.00 0.00 0.00 53 1016.0
20240614170903 77 275 1.0 1.0 0.00 0.00 0.00 60 1016.0
20240614165902 76 12 0.0 1.0 0.00 0.00 0.00 55 1016.0
20240614164903 75 319 0.0 0.0 0.00 0.00 0.00 59 1016.1
20240614163904 74 254 1.0 3.0 0.00 0.00 0.00 58 1016.1
20240614162902 74 263 2.0 3.0 0.00 0.00 0.00 60 1016.1
20240614161904 73 68 2.0 3.0 0.00 0.00 0.00 57 1016.0
20240614160904 73 325 1.0 2.0 0.00 0.00 0.00 57 1016.1
20240614155903 73 252 1.0 2.0 0.00 0.00 0.00 63 1016.0
20240614154903 72 250 0.0 1.0 0.00 0.00 0.00 61 1016.0
20240614153933 72 269 0.0 0.0 0.00 0.00 0.00 65 1016.0
20240614152902 72 263 0.0 0.0 0.00 0.00 0.00 65 1015.9
20240614151903 71 308 0.0 0.0 0.00 0.00 0.00 66 1015.9
20240614150903 71 281 0.0 1.0 0.00 0.00 0.00 68 1015.8
20240614145903 70 287 1.0 2.0 0.00 0.00 0.00 70 1015.6
20240614144903 70 303 0.0 1.0 0.00 0.00 0.00 70 1015.7
20240614143933 69 311 0.0 1.0 0.00 0.00 0.00 69 1015.7
20240614142903 69 268 1.0 2.0 0.00 0.00 0.00 73 1015.7
20240614141903 68 281 0.0 0.0 0.00 0.00 0.00 74 1015.7
20240614140904 68 278 0.0 0.0 0.00 0.00 0.00 75 1015.7
20240614135903 67 294 0.0 0.0 0.00 0.00 0.00 74 1015.7
20240614134933 66 290 0.0 1.0 0.00 0.00 0.00 76 1015.7
20240614133903 66 258 0.0 1.0 0.00 0.00 0.00 77 1015.8
20240614132902 65 288 0.0 0.0 0.00 0.00 0.00 78 1015.8
20240614131903 65 270 0.0 0.0 0.00 0.00 0.00 79 1015.8
20240614130933 64 246 0.0 1.0 0.00 0.00 0.00 79 1015.6
20240614125903 64 292 0.0 1.0 0.00 0.00 0.00 79 1015.3
20240614124904 63 309 0.0 0.0 0.00 0.00 0.00 80 1015.3
20240614123933 62 307 0.0 0.0 0.00 0.00 0.00 81 1015.2
20240614122933 62 307 0.0 0.0 0.00 0.00 0.00 81 1015.0
20240614121933 61 317 0.0 0.0 0.00 0.00 0.00 82 1015.0
20240614120903 61 294 0.0 0.0 0.00 0.00 0.00 83 1014.9
20240614115903 60 263 0.0 0.0 0.00 0.00 0.00 83 1014.8
20240614114903 60 256 0.0 0.0 0.00 0.00 0.00 83 1014.8
20240614113903 60 324 0.0 0.0 0.00 0.00 0.00 82 1014.7
20240614112903 60 332 0.0 0.0 0.00 0.00 0.00 82 1014.5
20240614111902 60 332 0.0 0.0 0.00 0.00 0.00 81 1014.3
20240614110903 60 332 0.0 0.0 0.00 0.00 0.00 81 1014.3
20240614105904 59 332 0.0 0.0 0.00 0.00 0.00 81 1014.3
20240614104903 59 332 0.0 0.0 0.00 0.00 0.00 81 1014.2
20240614103903 60 332 0.0 0.0 0.00 0.00 0.00 80 1014.1
20240614102902 60 332 0.0 0.0 0.00 0.00 0.00 79 1013.9
20240614101902 60 332 0.0 0.0 0.00 0.00 0.00 78 1013.8
20240614100903 60 332 0.0 0.0 0.00 0.00 0.00 78 1013.8
20240614095933 61 332 0.0 0.0 0.00 0.00 0.00 77 1013.8
20240614094903 62 332 0.0 0.0 0.00 0.00 0.00 77 1013.7
20240614093902 62 317 0.0 0.0 0.00 0.00 0.00 77 1013.4
20240614093003 62 317 0.0 0.0 0.00 0.00 0.00 77 1013.4
20240614091903 62 317 0.0 0.0 0.00 0.00 0.00 75 1013.3
20240614090903 63 314 0.0 0.0 0.00 0.00 0.00 74 1013.2
20240614085903 63 311 0.0 0.0 0.00 0.00 0.00 75 1013.2
20240614084902 62 311 0.0 0.0 0.00 0.00 0.00 76 1013.0
20240614083902 62 311 0.0 0.0 0.00 0.00 0.00 76 1012.9
20240614082903 62 317 0.0 0.0 0.00 0.00 0.00 74 1012.7
20240614081902 62 317 0.0 0.0 0.00 0.00 0.00 74 1012.6
20240614080902 62 300 0.0 0.0 0.00 0.00 0.00 73 1012.4
20240614075902 62 294 0.0 0.0 0.00 0.00 0.00 72 1012.3
20240614074902 63 294 0.0 0.0 0.00 0.00 0.00 71 1012.2
20240614073933 63 294 0.0 0.0 0.00 0.00 0.00 70 1012.2
20240614072903 64 294 0.0 0.0 0.00 0.00 0.00 71 1012.2
20240614071902 64 294 0.0 0.0 0.00 0.00 0.00 69 1012.1
20240614070902 64 275 0.0 0.0 0.00 0.00 0.00 67 1012.0
20240614065902 65 275 0.0 0.0 0.00 0.00 0.00 68 1011.9
20240614064902 65 291 0.0 0.0 0.00 0.00 0.00 68 1011.8
20240614063902 65 246 0.0 0.0 0.00 0.00 0.00 65 1011.7
20240614062902 66 292 0.0 0.0 0.00 0.00 0.00 66 1011.6
20240614061902 66 292 0.0 0.0 0.00 0.00 0.00 63 1011.4
20240614060902 66 283 0.0 0.0 0.00 0.00 0.00 65 1011.4
20240614055903 66 253 0.0 0.0 0.00 0.00 0.00 63 1011.2
20240614054902 67 273 0.0 2.0 0.00 0.00 0.00 62 1011.0
20240614053932 67 325 0.0 0.0 0.00 0.00 0.00 63 1011.1
20240614052932 67 314 0.0 0.0 0.00 0.00 0.00 61 1010.9
20240614051903 67 323 0.0 0.0 0.00 0.00 0.00 62 1010.9
20240614050902 67 304 0.0 1.0 0.00 0.00 0.00 62 1010.9
20240614045902 67 333 0.0 1.0 0.00 0.00 0.00 62 1010.8
20240614044902 67 342 1.0 3.0 0.00 0.00 0.00 63 1010.7
20240614043903 67 318 0.0 1.0 0.00 0.00 0.00 63 1010.7
20240614042902 66 315 0.0 0.0 0.00 0.00 0.00 62 1010.6
20240614041907 66 322 0.0 1.0 0.00 0.00 0.00 64 1010.4
20240614040902 66 308 1.0 2.0 0.00 0.00 0.00 67 1010.2
20240614035932 66 268 1.0 4.0 0.00 0.00 0.00 68 1010.0
20240614034902 67 15 0.0 0.0 0.00 0.00 0.00 71 1009.9
20240614033902 67 289 0.0 0.0 0.00 0.00 0.00 68 1009.7
20240614032933 67 289 0.0 0.0 0.00 0.00 0.00 64 1009.6
20240614031932 68 289 0.0 0.0 0.00 0.00 0.00 64 1009.4
20240614030902 68 289 0.0 0.0 0.00 0.00 0.00 59 1009.3
20240614025904 69 288 0.0 0.0 0.00 0.00 0.00 58 1009.4
20240614024902 69 163 0.0 0.0 0.00 0.00 0.00 53 1009.0
20240614023932 70 163 0.0 0.0 0.00 0.00 0.00 51 1008.9
20240614022903 70 163 0.0 0.0 0.00 0.00 0.00 50 1008.8
20240614021903 71 163 0.0 0.0 0.00 0.00 0.00 48 1008.8
20240614020902 71 163 0.0 0.0 0.00 0.00 0.00 49 1008.7
20240614015902 72 163 0.0 0.0 0.00 0.00 0.00 49 1008.6
20240614014902 72 163 0.0 0.0 0.00 0.00 0.00 50 1008.7
20240614013902 73 163 0.0 0.0 0.00 0.00 0.00 50 1008.8
20240614012902 74 163 0.0 0.0 0.00 0.00 0.00 49 1008.9
20240614011902 74 163 0.0 0.0 0.00 0.00 0.00 49 1009.0
20240614010903 75 163 0.0 0.0 0.00 0.00 0.00 48 1009.0
20240614005932 76 149 0.0 0.0 0.00 0.00 0.00 48 1009.0
20240614004902 76 306 0.0 0.0 0.00 0.00 0.00 46 1009.0
20240614003902 77 306 0.0 0.0 0.00 0.00 0.00 43 1009.0
20240614002902 77 306 0.0 0.0 0.00 0.00 0.00 40 1009.0
20240614001932 77 304 0.0 1.0 0.00 0.00 0.00 43 1009.0
20240614000902 78 337 0.0 0.0 0.00 0.00 0.00 42 1009.1
20240613235902 78 228 0.0 0.0 0.00 0.00 0.00 39 1009.1
20240613234932 79 273 1.0 2.0 0.00 0.00 0.00 40 1008.9
20240613233902 79 293 2.0 8.0 0.00 0.00 0.00 40 1008.9
20240613232902 79 293 0.0 1.0 0.00 0.00 0.00 38 1008.9
20240613231902 79 260 0.0 2.0 0.00 0.00 0.00 41 1008.9
20240613231009 79 291 1.0 2.0 0.00 0.00 0.00 40 1008.9
20240613225933 79 314 2.0 2.0 0.00 0.00 0.00 39 1008.8
20240613224932 80 283 3.0 4.0 0.00 0.00 0.00 41 1008.7
20240613223902 80 330 1.0 2.0 0.00 0.00 0.00 39 1008.7
20240613222903 80 296 2.0 5.0 0.00 0.00 0.00 40 1008.8
20240613221934 80 286 2.0 6.0 0.00 0.00 0.00 37 1008.7
20240613220933 80 267 2.0 3.0 0.00 0.00 0.00 37 1008.6
20240613215902 80 271 4.0 8.0 0.00 0.00 0.00 35 1008.4
20240613214903 80 271 2.0 4.0 0.00 0.00 0.00 38 1008.6
20240613213903 80 285 3.0 7.0 0.00 0.00 0.00 42 1008.4
20240613212903 80 297 2.0 4.0 0.00 0.00 0.00 43 1008.3
20240613211934 80 306 3.0 5.0 0.00 0.00 0.00 48 1008.3
20240613210933 80 243 2.0 3.0 0.00 0.00 0.00 44 1008.1
20240613205904 80 245 1.0 2.0 0.00 0.00 0.00 50 1008.1
20240613204903 80 329 2.0 5.0 0.00 0.00 0.00 50 1008.1
20240613204003 80 314 0.0 1.0 0.00 0.00 0.00 55 1008.0
20240613202902 80 13 2.0 3.0 0.00 0.00 0.00 51 1008.0
20240613201903 80 3 1.0 2.0 0.00 0.00 0.00 50 1008.1
20240613200902 80 286 0.0 1.0 0.00 0.00 0.00 50 1008.0
20240613195932 81 342 0.0 2.0 0.00 0.00 0.00 50 1008.0
20240613194902 82 311 2.0 3.0 0.00 0.00 0.00 47 1008.0
20240613194002 82 340 0.0 0.0 0.00 0.00 0.00 49 1007.9
20240613192903 82 20 1.0 1.0 0.00 0.00 0.00 50 1007.9
20240613191904 81 328 1.0 2.0 0.00 0.00 0.00 50 1008.1
20240613190902 80 358 1.0 2.0 0.00 0.00 0.00 54 1008.3
20240613185902 80 270 0.0 2.0 0.00 0.00 0.00 50 1008.3
20240613184935 80 298 0.0 1.0 0.00 0.00 0.00 52 1008.3
20240613183905 79 302 1.0 2.0 0.00 0.00 0.00 53 1008.4
20240613182933 78 279 0.0 1.0 0.00 0.00 0.00 53 1008.4
20240613181902 78 345 1.0 2.0 0.00 0.00 0.00 58 1008.5
20240613180902 77 291 2.0 5.0 0.00 0.00 0.00 61 1008.7
20240613175903 76 329 0.0 0.0 0.00 0.00 0.00 64 1008.8